Chattahoochee River Whitewater Weather Center

Moon Phase Calendar



Online Cameras

 


      

Current Conditions in Phenix City
10/29/2020 7:27:52 PM

73°F
Feels Like 63
Clear
Humidity
46%
Pressure
29.71"
Wind
19.5 mph (W)
Dew Point
51°F
UV Index
5/10 (Moderate)
Visibility
6 mi

Hourly Forecast

Date & Time Thu, Oct 29
7:00 PM
Thu, Oct 29
8:00 PM
Thu, Oct 29
9:00 PM
Thu, Oct 29
10:00 PM
Thu, Oct 29
11:00 PM
Fri, Oct 30
12:00 AM
Fri, Oct 30
1:00 AM
Fri, Oct 30
2:00 AM
Fri, Oct 30
3:00 AM
Fri, Oct 30
4:00 AM
Fri, Oct 30
5:00 AM
Fri, Oct 30
6:00 AM
Fri, Oct 30
7:00 AM
Fri, Oct 30
8:00 AM
Fri, Oct 30
9:00 AM
Fri, Oct 30
10:00 AM
Fri, Oct 30
11:00 AM
Fri, Oct 30
12:00 PM
Fri, Oct 30
1:00 PM
Fri, Oct 30
2:00 PM
Fri, Oct 30
3:00 PM
Fri, Oct 30
4:00 PM
Fri, Oct 30
5:00 PM
Fri, Oct 30
6:00 PM
Fri, Oct 30
7:00 PM
Fri, Oct 30
8:00 PM
Fri, Oct 30
9:00 PM
Fri, Oct 30
10:00 PM
Fri, Oct 30
11:00 PM
Sat, Oct 31
12:00 AM
Sat, Oct 31
1:00 AM
Sat, Oct 31
2:00 AM
Sat, Oct 31
3:00 AM
Sat, Oct 31
4:00 AM
Sat, Oct 31
5:00 AM
Sat, Oct 31
6:00 AM
Sat, Oct 31
7:00 AM
Sat, Oct 31
8:00 AM
Sat, Oct 31
9:00 AM
Sat, Oct 31
10:00 AM
Sat, Oct 31
11:00 AM
Sat, Oct 31
12:00 PM
Sat, Oct 31
1:00 PM
Sat, Oct 31
2:00 PM
Sat, Oct 31
3:00 PM
Sat, Oct 31
4:00 PM
Sat, Oct 31
5:00 PM
Sat, Oct 31
6:00 PM
Condition
Clear

Clear

Clear

Clear

Clear

Clear

Clear

Clear

Clear

Clear

Clear

Clear

Clouds

Clouds

Clear

Clear

Clear

Clear

Clear

Clear

Clear

Clear

Clear

Clear

Clear

Clear

Clear

Clear

Clear

Clear

Clear

Clear

Clear

Clear

Clear

Clear

Clear

Clear

Clear

Clear

Clear

Clear

Clear

Clear

Clear

Clear

Clear

Clear
Temperature 73°F67°F61°F57°F54°F53°F52°F51°F51°F51°F51°F52°F55°F54°F55°F57°F60°F62°F65°F67°F68°F68°F68°F65°F61°F58°F56°F54°F53°F52°F51°F52°F52°F53°F54°F55°F54°F54°F54°F57°F60°F63°F66°F68°F69°F70°F69°F67°F
Feels Like 65°F58°F52°F48°F45°F45°F44°F43°F44°F44°F44°F46°F50°F50°F50°F51°F54°F56°F59°F60°F62°F62°F62°F60°F56°F53°F50°F48°F47°F47°F46°F47°F47°F48°F48°F48°F48°F47°F47°F49°F53°F56°F60°F62°F64°F65°F65°F63°F
Cloudiness 1%7%0%0%0%0%0%0%0%0%0%10%26%28%0%0%0%0%0%0%0%0%0%0%0%0%0%0%0%0%0%0%0%0%0%0%0%0%0%0%0%0%0%0%0%1%1%3%
Visibility 6 mi6 mi6 mi6 mi6 mi6 mi6 mi6 mi6 mi6 mi6 mi6 mi6 mi6 mi6 mi6 mi6 mi6 mi6 mi6 mi6 mi6 mi6 mi6 mi6 mi6 mi6 mi6 mi6 mi6 mi6 mi6 mi6 mi6 mi6 mi6 mi6 mi6 mi6 mi6 mi6 mi6 mi6 mi6 mi6 mi6 mi6 mi6 mi
Precipitation 20%16%0%0%0%0%0%0%0%0%0%0%0%0%0%0%0%0%0%0%0%0%0%0%0%0%0%0%0%0%0%0%0%0%0%0%0%0%0%0%0%0%0%0%0%0%0%0%
Humidity 46%50%53%57%58%59%61%64%67%70%74%75%71%75%73%68%62%57%50%46%45%43%45%52%59%60%59%60%64%67%68%68%69%72%72%70%68%67%64%57%52%49%47%47%47%48%50%55%
Dew Point 51°F48°F44°F42°F39°F39°F39°F40°F41°F42°F43°F44°F46°F46°F47°F47°F47°F47°F46°F46°F46°F45°F46°F47°F46°F45°F42°F41°F41°F41°F42°F42°F43°F44°F45°F45°F44°F43°F43°F43°F43°F44°F46°F47°F49°F50°F50°F51°F
Pressure 29.71"29.77"29.85"29.91"29.94"29.97"29.97"29.97"29.97"29.97"29.97"30"30.03"30.06"30.06"30.09"30.12"30.12"30.12"30.09"30.09"30.06"30.06"30.09"30.12"30.15"30.15"30.18"30.18"30.21"30.21"30.21"30.21"30.21"30.21"30.24"30.27"30.27"30.3"30.3"30.33"30.3"30.3"30.27"30.24"30.21"30.21"30.21"
Wind Speed 16.4 mph14.4 mph13.6 mph13.5 mph11.6 mph9.8 mph10.7 mph10.2 mph9.5 mph9.1 mph8.7 mph7.7 mph7.7 mph6.3 mph8.3 mph9.3 mph9 mph8.9 mph8.6 mph8.8 mph8.7 mph8.7 mph8.7 mph7.2 mph7.2 mph8.1 mph8.1 mph7.2 mph6.5 mph5.9 mph5.9 mph5.5 mph5.9 mph6.2 mph7.5 mph9 mph8.7 mph9 mph10 mph10.9 mph10.1 mph9.7 mph9 mph9.1 mph8.3 mph8.7 mph8.2 mph6.8 mph
Wind
Direction
275°
W
272°
W
279°
W
285°
WNW
294°
WNW
298°
WNW
293°
WNW
293°
WNW
294°
WNW
300°
WNW
305°
NW
310°
NW
314°
NW
315°
NW
323°
NW
329°
NNW
333°
NNW
335°
NNW
339°
NNW
341°
NNW
341°
NNW
347°
NNW
348°
NNW
347°
NNW
351°
N

N

N

N
10°
N

N
17°
NNE
35°
NE
43°
NE
50°
NE
71°
ENE
77°
ENE
77°
ENE
77°
ENE
79°
E
86°
E
85°
E
87°
E
88°
E
97°
E
96°
E
96°
E
90°
E
87°
E

Daily Forecast

Date High Low Precip. Humidity
Today
Oct 29

Rain
83 °F
58 °F
100%
65%
Friday
Oct 30

Clear
68 °F
51 °F
0%
46%
Saturday
Oct 31

Clear
69 °F
52 °F
0%
47%
Sunday
Nov 1

Clouds
75 °F
57 °F
0%
53%
Monday
Nov 2

Clear
62 °F
41 °F
0%
32%
Tuesday
Nov 3

Clear
68 °F
42 °F
0%
25%
Wednesday
Nov 4

Clear
70 °F
48 °F
0%
28%
Thursday
Nov 5

Clouds
71 °F
51 °F
0%
47%
Friday
Nov 6

Clouds
72 °F
56 °F
0%
42%
Saturday
Nov 7

Rain
74 °F
59 °F
24%
78%
Sunday
Nov 8

Clear
77 °F
62 °F
0%
58%
Monday
Nov 9

Clouds
77 °F
65 °F
0%
64%
Tuesday
Nov 10

Clear
82 °F
64 °F
0%
52%
Wednesday
Nov 11

Rain
75 °F
63 °F
28%
70%
Thursday
Nov 12

Clouds
72 °F
58 °F
0%
58%
Friday
Nov 13

Clouds
77 °F
61 °F
0%
65%


Temperature 8-14 Day Outlook



Precipitation 8-14 Day Outlook




Quick Links
Chattahoochee River Whitewater News
Chattahoochee River Whitewater Photos
Chattahoochee River Whitewater Videos




About Us
Contact Us
Site Map
Search Site
Advertise With Us
   
www.ChattahoocheeRiverWhitewater.com
THE CHATTAHOOCHEE RIVER WHITEWATER WEBSITE

Copyright 2020, Discover Rivers
Privacy    |    Legal